Location: Vuhativo
(0.3535°N, 29.7521°E)
Time: 12:13:18
(UTC+00:00)

Daily predictions for brighter satellites

Satellite Brightness Start Highest point End
(mag) Time Altitude Azimuth Time Altitude Azimuth Time Altitude Azimuth
NOAA 11 4.2 16:23:38 10° SSE 16:29:00 63° ENE 16:34:20 10° N
Cosmos 2369 Rocket 2.2 16:25:09 10° N 16:30:47 73° ENE 16:36:29 10° SSE
FengYun 1-2 T 4.4 16:29:24 10° S 16:34:56 82° WSW 16:40:26 10° NNW
Meteor 2-3 Rocket 3.8 16:29:43 10° S 16:35:25 70° E 16:41:09 10° NNE
Cosmos 2263 4.4 16:31:53 10° N 16:37:29 55° ENE 16:43:04 10° SSE
CZ-2C R/B 3.8 16:34:27 10° ENE 16:38:08 19° ESE 16:41:51 10° SSE
GOES 2 Rocket 4.3 16:32:16 10° NW 16:38:20 74° NNE 16:46:25 11° ESE
Milstar 3 3.5 16:32:37 10° WNW 16:39:41 75° SSW 16:51:26 10° SE
Cosmos 1656 Rocket 4.3 16:34:40 10° N 16:39:46 37° ENE 16:44:55 10° SE
Cosmos 1766 Rocket 4.3 16:35:35 10° SSW 16:39:58 60° W 16:44:22 10° N
Centaur D-1A AC-32 3.1 16:36:14 10° WNW 16:40:53 40° SSW 16:44:10 10° SE
YAOGAN 1 3.3 16:39:44 10° SE 16:43:37 32° ENE 16:47:28 10° NNE
Cosmos 1110 Rocket 4.5 16:38:56 10° N 16:43:50 39° ENE 16:48:42 10° SE
USA 267 3.8 16:40:09 10° NNE 16:46:35 63° NW 16:53:03 10° SW
Cosmos 1633 2.5 16:44:10 10° S 16:47:40 55° E 16:51:07 10° NNE
Cosmos 1833 Rocket 2.8 16:42:38 10° S 16:48:02 49° ESE 16:53:24 10° NNE
CZ-4C R/B 3.8 16:40:30 10° NW 16:48:47 59° WSW 16:56:57 10° S
CZ-4 R/B 1.4 16:46:20 10° SSE 16:50:05 51° ENE 16:53:50 10° N
Cosmos 1151 Rocket 4.4 16:47:17 10° NE 16:50:20 19° E 16:52:22 14° ESE
MOS 1 Rocket 3.5 16:48:17 10° NNE 16:53:22 57° E 16:58:13 10° S
Cosmos 1943 Rocket 3.9 16:50:19 10° NW 16:55:14 33° WSW 17:00:08 10° SSW
Cosmos 1408 Rocket 3.8 16:52:08 10° S 16:56:35 75° W 17:01:00 10° N
Cosmos 1743 Rocket 3.7 16:57:46 10° S 17:02:03 52° E 17:06:20 10° NNE
Cosmos 2366 rocket 4.0 16:57:15 10° S 17:03:34 70° E 17:09:46 10° N
CZ-2D R/B 3.4 17:02:00 10° S 17:05:46 72° W 17:09:32 10° NNW
USA 238 DEB 3.7 17:01:32 10° S 17:07:51 50° ESE 17:14:09 10° NE
USA 238 3.7 17:01:39 10° S 17:07:58 50° ESE 17:14:15 10° NE
SL-8 Rocket 4.3 17:08:33 10° S 17:14:39 67° W 17:20:45 10° N
deb Ariane 4.2 17:11:18 10° WNW 17:14:47 26° NNW 17:15:49 19° NNE
Cosmos 1190 Rocket 4.3 17:10:11 10° S 17:15:07 43° ESE 17:20:03 10° NNE
Cosmos 1606 2.5 17:12:04 10° N 17:15:49 73° E 17:18:53 15° S
Ariane H10+ 2.1 17:13:42 10° WNW 17:16:02 31° N 17:16:05 31° N
Cosmos 407 Rocket 3.5 17:10:47 10° S 17:16:03 60° ESE 17:21:17 10° NNE
Okean-O 3.7 17:12:03 10° S 17:16:18 46° WSW 17:20:32 10° NNW
Cosmos 1500 Rocket 3.5 17:16:24 10° S 17:20:44 86° W 17:25:02 10° N
CZ-2C R/B 3.0 17:18:50 18° SSE 17:22:28 54° ENE 17:27:15 10° N
GPS 2-15 Rocket1 3.6 17:19:20 10° W 17:23:53 55° NNW 17:26:34 23° NE
Cosmos 1933 3.2 17:22:05 10° N 17:26:08 65° E 17:27:33 37° SSE
GPS 2-18 Rocket1 3.8 17:25:13 10° SW 17:28:47 38° SSE 17:28:47 38° SSE
CENTAUR R/B 3.2 17:25:44 10° S 17:28:11 24° SSE 17:28:11 24° SSE
Cosmos 1331 Rocket 4.5 17:27:48 10° NNW 17:32:53 59° WSW 17:37:57 10° S
SL-08 R/B 4.4 17:28:37 10° S 17:35:00 82° E 17:41:14 10° N
Iridium 2 3.8 17:32:23 10° N 17:36:04 69° W 17:37:45 30° SSW
Cosmos 1140 Rocket 3.3 17:31:15 10° S 17:36:27 75° ESE 17:41:40 10° NNE
Aureole 1 Rocket 3.9 17:37:58 44° E 17:37:58 44° E 17:43:19 10° NNE
CSL-04 Rocket 3.7 17:33:03 11° S 17:38:13 80° WSW 17:43:30 10° NNW
Abrixas rocket 4.1 17:36:30 10° WNW 17:38:47 21° SW 17:38:47 21° SW
Cosmos 1023 Rocket 4.4 17:34:53 10° S 17:40:07 86° ESE 17:45:22 10° NNE
H-2A ROCKET BODY 3.2 17:35:53 10° NW 17:40:14 56° NE 17:45:14 33° E
H-2A R/B 1.9 17:39:44 36° SSE 17:41:56 75° ENE 17:47:07 10° N
Cosmos 1805 Rocket 3.5 17:44:30 71° NE 17:44:30 71° NE 17:48:31 10° N
Cosmos 2082 Rocket 2.2 17:39:30 10° SSW 17:45:13 79° WNW 17:50:54 10° NNE
ARGOS 3.0 17:51:45 68° E 17:51:55 68° ENE 17:57:15 10° N
Cosmos 1328 Rocket 4.2 17:48:32 10° NNW 17:52:52 54° W 17:54:30 34° SSW
Meteor 1-26 Rocket 4.0 17:49:08 10° N 17:54:32 88° E 17:55:27 63° S
ISS -1.5 17:54:12 10° NW 17:55:40 24° NW 17:55:40 24° NW
NOSS 3-2 (A) 4.3 17:56:55 10° SW 18:01:59 41° WNW 18:07:05 10° N
Cosmos 1339 Rocket 4.5 17:59:40 10° N 18:05:54 78° W 18:07:49 47° S
NOSS 3-2 (C) 3.3 18:03:46 10° SSW 18:08:32 66° WSW 18:08:32 66° WSW
ATLAS 5 CENTAUR R/B 1.9 18:07:51 10° W 18:10:42 57° NW 18:10:42 57° NW
Ariane H10 3.3 18:21:06 10° W 18:58:57 - E 18:24:52 75° NNW
BLOCK DM-SL R/B 4.1 18:18:20 10° W 18:36:48 66° W 18:36:48 66° W
Ariane H10-3 4.2 17:52:34 10° W 18:51:41 75° SSW 18:51:41 75° SSW
ARIANE 5 R/B 4.5 18:52:39 10° W 18:54:26 16° WNW 18:54:26 16° WNW
